Location: Carrer del Canonge
(41.4901°N, 2.2931°E)
Time: 18:41:23
(UTC+00:00)

SPOT 3 Rocket - Pass Details

Date: 22 June 2021
Orbit: 779 x 794 km, 98.7° (Epoch: 01 August)

Event Time Altitude Azimuth Distance (km) Brightness Sun altitude
Exits shadow 21:48:03 - 214° (SW) 2,637 6.0 -18.9°
Reaches altitude 10° 21:49:05 10° 221° (SW) 2,338 5.8 -19.0°
Maximum altitude 21:52:46 20° 267° (W) 1,771 5.7 -19.4°
Drops below altitude 10° 21:56:30 10° 313° (NW) 2,357 7.1 -19.7°
Sets 21:59:29 0° 331° (NNW) 3,294 8.4 -20.0°
